| time (UTC) | temp F | wind direction | speed MPH | gust MPH | rain 1hr in | rain 24hr in | rain mn in | humidity % | barometer mb |
| 20260906220006 | 95 | 342 | 3.0 | 0.0 | 0.00 | 0.00 | 0.00 | 33 | 993.1 |
| 20260906214505 | 94 | 7 | 4.0 | 0.0 | 0.00 | 0.00 | 0.00 | 33 | 993.2 |
| 20260906213002 | 92 | 126 | 4.0 | 0.0 | 0.00 | 0.00 | 0.00 | 34 | 993.6 |
| 20260906211508 | 92 | 25 | 3.0 | 0.0 | 0.00 | 0.00 | 0.00 | 34 | 994.1 |
| 20260906210002 | 94 | 71 | 2.0 | 0.0 | 0.00 | 0.00 | 0.00 | 35 | 993.7 |
| 20260906204606 | 92 | 85 | 3.0 | 0.0 | 0.00 | 0.00 | 0.00 | 35 | 994.4 |
| 20260906203100 | 92 | 328 | 3.0 | 0.0 | 0.00 | 0.00 | 0.00 | 35 | 994.4 |
| 20260906201608 | 88 | 115 | 5.0 | 0.0 | 0.00 | 0.00 | 0.00 | 37 | 995.2 |
| 20260906200056 | 89 | 56 | 4.0 | 0.0 | 0.00 | 0.00 | 0.00 | 38 | 995.1 |
| 20260906194556 | 92 | 114 | 3.0 | 0.0 | 0.00 | 0.00 | 0.00 | 34 | 994.8 |
| 20260906193055 | 91 | 89 | 4.0 | 0.0 | 0.00 | 0.00 | 0.00 | 35 | 994.8 |
| 20260906191553 | 91 | 360 | 3.0 | 0.0 | 0.00 | 0.00 | 0.00 | 36 | 995.2 |
| 20260906190050 | 89 | 23 | 3.0 | 0.0 | 0.00 | 0.00 | 0.00 | 40 | 995.6 |
| 20260906184555 | 87 | 119 | 3.0 | 0.0 | 0.00 | 0.00 | 0.00 | 40 | 996.3 |
| 20260906183047 | 89 | 39 | 2.0 | 0.0 | 0.00 | 0.00 | 0.00 | 40 | 996.3 |
| 20260906181547 | 88 | 51 | 3.0 | 0.0 | 0.00 | 0.00 | 0.00 | 40 | 996.5 |
| 20260906180100 | 88 | 51 | 2.0 | 0.0 | 0.00 | 0.00 | 0.00 | 40 | 996.9 |
| 20260906174543 | 86 | 358 | 2.0 | 0.0 | 0.00 | 0.00 | 0.00 | 43 | 997.4 |
| 20260906173041 | 83 | 56 | 2.0 | 0.0 | 0.00 | 0.00 | 0.00 | 46 | 998.4 |
| 20260906171541 | 85 | 31 | 2.0 | 0.0 | 0.00 | 0.00 | 0.00 | 44 | 998.0 |
| 20260906170046 | 85 | 325 | 1.0 | 0.0 | 0.00 | 0.00 | 0.00 | 45 | 997.8 |
| 20260906164535 | 83 | 325 | 1.0 | 0.0 | 0.00 | 0.00 | 0.00 | 47 | 998.1 |
| 20260906163030 | 80 | 6 | 1.0 | 0.0 | 0.00 | 0.00 | 0.00 | 51 | 999.0 |
| 20260906161530 | 79 | 88 | 2.0 | 0.0 | 0.00 | 0.00 | 0.00 | 53 | 998.8 |
| 20260906160028 | 77 | 37 | 1.0 | 0.0 | 0.00 | 0.00 | 0.00 | 58 | 999.5 |
| 20260906154525 | 77 | 61 | 2.0 | 0.0 | 0.00 | 0.00 | 0.00 | 57 | 999.2 |
| 20260906153022 | 76 | 51 | 1.0 | 0.0 | 0.00 | 0.00 | 0.00 | 62 | 999.6 |
| 20260906151520 | 75 | 40 | 2.0 | 0.0 | 0.00 | 0.00 | 0.00 | 64 | 999.6 |
| 20260906150023 | 74 | 35 | 1.0 | 0.0 | 0.00 | 0.00 | 0.00 | 66 | 999.6 |
| 20260906144514 | 72 | 315 | 2.0 | 0.0 | 0.00 | 0.00 | 0.00 | 69 | 999.9 |
| 20260906143021 | 70 | 244 | 1.0 | 0.0 | 0.00 | 0.00 | 0.00 | 72 | 1000.2 |
| 20260906141511 | 68 | 298 | 1.0 | 0.0 | 0.00 | 0.00 | 0.00 | 74 | 1000.7 |
| 20260906140018 | 65 | 300 | 2.0 | 0.0 | 0.00 | 0.00 | 0.00 | 75 | 1000.8 |
| 20260906134510 | 64 | 255 | 3.0 | 0.0 | 0.00 | 0.00 | 0.00 | 78 | 1001.1 |
| 20260906133009 | 63 | 297 | 2.0 | 0.0 | 0.00 | 0.00 | 0.00 | 78 | 1001.3 |
| 20260906131515 | 62 | 314 | 2.0 | 0.0 | 0.00 | 0.00 | 0.00 | 80 | 1001.5 |
| 20260906130008 | 61 | 314 | 1.0 | 0.0 | 0.00 | 0.00 | 0.00 | 81 | 1000.5 |
| 20260906124508 | 61 | 314 | 1.0 | 0.0 | 0.00 | 0.00 | 0.00 | 81 | 1000.4 |
| 20260906123007 | 61 | 289 | 0.0 | 0.0 | 0.00 | 0.00 | 0.00 | 81 | 1000.4 |
| 20260906121507 | 61 | 279 | 1.0 | 0.0 | 0.00 | 0.00 | 0.00 | 81 | 1000.4 |
| 20260906120005 | 62 | 287 | 1.0 | 0.0 | 0.00 | 0.00 | 0.00 | 81 | 999.4 |
| 20260906114504 | 62 | 264 | 0.0 | 0.0 | 0.00 | 0.00 | 0.00 | 81 | 999.1 |
| 20260906113002 | 62 | 289 | 0.0 | 0.0 | 0.00 | 0.00 | 0.00 | 79 | 999.3 |
| 20260906111616 | 63 | 294 | 1.0 | 0.0 | 0.00 | 0.00 | 0.00 | 77 | 999.3 |
| 20260906110059 | 63 | 287 | 3.0 | 0.0 | 0.00 | 0.00 | 0.00 | 74 | 998.6 |
| 20260906104557 | 63 | 300 | 3.0 | 0.0 | 0.00 | 0.00 | 0.00 | 71 | 998.5 |
| 20260906103054 | 64 | 304 | 3.0 | 0.0 | 0.00 | 0.00 | 0.00 | 69 | 998.4 |
| 20260906101551 | 65 | 316 | 1.0 | 0.0 | 0.00 | 0.00 | 0.00 | 67 | 998.2 |
| 20260906100048 | 65 | 326 | 1.0 | 0.0 | 0.00 | 0.00 | 0.00 | 64 | 998.3 |
| 20260906094545 | 66 | 13 | 1.0 | 0.0 | 0.00 | 0.00 | 0.00 | 62 | 997.8 |
| 20260906093046 | 67 | 327 | 1.0 | 0.0 | 0.00 | 0.00 | 0.00 | 60 | 998.0 |
| 20260906091539 | 68 | 310 | 1.0 | 0.0 | 0.00 | 0.00 | 0.00 | 57 | 997.4 |
| 20260906090038 | 69 | 315 | 2.0 | 0.0 | 0.00 | 0.00 | 0.00 | 55 | 997.2 |
| 20260906084546 | 69 | 300 | 2.0 | 0.0 | 0.00 | 0.00 | 0.00 | 56 | 997.0 |
| 20260906083037 | 69 | 46 | 1.0 | 0.0 | 0.00 | 0.00 | 0.00 | 56 | 996.7 |
| 20260906081533 | 70 | 93 | 1.0 | 0.0 | 0.00 | 0.00 | 0.00 | 55 | 996.5 |
| 20260906080034 | 71 | 256 | 4.0 | 0.0 | 0.00 | 0.00 | 0.00 | 53 | 995.9 |
| 20260906074529 | 71 | 237 | 5.0 | 0.0 | 0.00 | 0.00 | 0.00 | 53 | 995.7 |
| 20260906073037 | 71 | 254 | 3.0 | 0.0 | 0.00 | 0.00 | 0.00 | 53 | 995.4 |
| 20260906071527 | 71 | 240 | 5.0 | 0.0 | 0.00 | 0.00 | 0.00 | 54 | 995.5 |
| 20260906070026 | 71 | 225 | 6.0 | 0.0 | 0.00 | 0.00 | 0.00 | 55 | 996.1 |
| 20260906064524 | 71 | 290 | 4.0 | 0.0 | 0.00 | 0.00 | 0.00 | 56 | 996.5 |
| 20260906063022 | 71 | 262 | 3.0 | 0.0 | 0.00 | 0.00 | 0.00 | 54 | 996.5 |
| 20260906061521 | 72 | 252 | 2.0 | 0.0 | 0.00 | 0.00 | 0.00 | 54 | 996.7 |
| 20260906060019 | 72 | 144 | 1.0 | 0.0 | 0.00 | 0.00 | 0.00 | 54 | 997.8 |
| 20260906054517 | 73 | 158 | 3.0 | 0.0 | 0.00 | 0.00 | 0.00 | 53 | 997.8 |
| 20260906053017 | 75 | 185 | 2.0 | 0.0 | 0.00 | 0.00 | 0.00 | 52 | 997.2 |
| 20260906051516 | 76 | 246 | 3.0 | 0.0 | 0.00 | 0.00 | 0.00 | 45 | 997.8 |
| 20260906050016 | 76 | 266 | 4.0 | 0.0 | 0.00 | 0.00 | 0.00 | 44 | 998.6 |
| 20260906044515 | 77 | 188 | 4.0 | 0.0 | 0.00 | 0.00 | 0.00 | 42 | 998.8 |
| 20260906043019 | 75 | 84 | 4.0 | 0.0 | 0.00 | 0.00 | 0.00 | 46 | 998.6 |
| 20260906041514 | 76 | 17 | 2.0 | 0.0 | 0.00 | 0.00 | 0.00 | 42 | 997.6 |
| 20260906040019 | 76 | 243 | 2.0 | 0.0 | 0.00 | 0.00 | 0.00 | 42 | 997.7 |
| 20260906034526 | 75 | 73 | 1.0 | 0.0 | 0.00 | 0.00 | 0.00 | 42 | 997.6 |
| 20260906033023 | 76 | 105 | 1.0 | 0.0 | 0.00 | 0.00 | 0.00 | 43 | 997.1 |
| 20260906031513 | 76 | 117 | 2.0 | 0.0 | 0.00 | 0.00 | 0.00 | 41 | 997.2 |
| 20260906030012 | 77 | 162 | 0.0 | 0.0 | 0.00 | 0.00 | 0.00 | 41 | 997.2 |
| 20260906024511 | 78 | 255 | 0.0 | 0.0 | 0.00 | 0.00 | 0.00 | 38 | 996.8 |
| 20260906023011 | 79 | 255 | 0.0 | 0.0 | 0.00 | 0.00 | 0.00 | 37 | 996.3 |
| 20260906021511 | 80 | 255 | 2.0 | 0.0 | 0.00 | 0.00 | 0.00 | 37 | 996.3 |
| 20260906020011 | 80 | 223 | 0.0 | 0.0 | 0.00 | 0.00 | 0.00 | 37 | 996.6 |
| 20260906014523 | 81 | 227 | 1.0 | 0.0 | 0.00 | 0.00 | 0.00 | 36 | 996.0 |
| 20260906013014 | 82 | 264 | 3.0 | 0.0 | 0.00 | 0.00 | 0.00 | 34 | 995.7 |
| 20260906011512 | 83 | 301 | 4.0 | 0.0 | 0.00 | 0.00 | 0.00 | 33 | 995.4 |
| 20260906010009 | 85 | 295 | 4.0 | 0.0 | 0.00 | 0.00 | 0.00 | 31 | 996.0 |
| 20260906004509 | 86 | 331 | 3.0 | 0.0 | 0.00 | 0.00 | 0.00 | 30 | 996.0 |
| 20260906003008 | 88 | 233 | 1.0 | 0.0 | 0.00 | 0.00 | 0.00 | 31 | 995.5 |
| 20260906001508 | 89 | 154 | 0.0 | 0.0 | 0.00 | 0.00 | 0.00 | 29 | 995.5 |
| 20260906000007 | 89 | 155 | 0.0 | 0.0 | 0.00 | 0.00 | 0.00 | 28 | 995.5 |
| 20260905234507 | 91 | 78 | 1.0 | 0.0 | 0.00 | 0.00 | 0.00 | 28 | 995.1 |
| 20260905233007 | 92 | 59 | 2.0 | 0.0 | 0.00 | 0.00 | 0.00 | 26 | 994.8 |
| 20260905231506 | 92 | 16 | 2.0 | 0.0 | 0.00 | 0.00 | 0.00 | 28 | 995.1 |
| 20260905230005 | 92 | 136 | 2.0 | 0.0 | 0.00 | 0.00 | 0.00 | 26 | 995.1 |
| 20260905224509 | 90 | 23 | 1.0 | 0.0 | 0.00 | 0.00 | 0.00 | 29 | 995.3 |
| 20260905223005 | 91 | 90 | 1.0 | 0.0 | 0.00 | 0.00 | 0.00 | 27 | 995.3 |
| 20260905221504 | 91 | 196 | 4.0 | 0.0 | 0.00 | 0.00 | 0.00 | 27 | 995.5 |